リニア彗星

P/2005 YQ127 ( LINEAR )

English version
Home page
Updated on April 23, 2006

---------------------------------------------------------------------

・ プロフィール

発見日 2005年12月28日
発見光度 18.0等
発見者 Lincoln Laboratory Near-Earth Asteroid Research project

・ 写真集

・ 軌道要素

Epoch 2005 Nov. 6.0 TT = JDT 2453680.5
T 2005 Nov. 3.95314 TT                                  MPC
q   1.9190477            (2000.0)            P               Q
n   0.12961974     Peri.  152.30118     +0.34405117     -0.89433612
a   3.8668319      Node   276.37785     +0.79947568     +0.43875845
e   0.5037158      Incl.   16.72471     +0.49240982     -0.08748674
P   7.60

・ 星図

・ 光度変化

        m1 = 10.5 + 5 logΔ + 20 log r

---------------------------------------------------------------------

軌道要素はM.P.E.C. 2006-D06に掲載されたものです。
星図は StellaNavigator Ver.2.0 for Windows (アストロアーツ 編著 / アスキー出版局刊) で作成したものです。
光度グラフはComet for Windowsで作成したものです。

---------------------------------------------------------------------

Copyright(C) Seiichi Yoshida (comet@aerith.net). All rights reserved.